Temperature
15 15 15 14 14 14 14 14 15 16 16 17 17 15 13 13 12 11 11 11 10 10 10 11 11 11 11 11 11 11 11 11 11 11 11 10 10 9 8 7 6 4 3 1
13 14 14 13 13 14 14 14 14 15 15 16 14 13 12 12 12 11 11 10 10 10 10 9 9 9 10 10 10 10 10 10 10 10 10 10 9 8 8 7 5 4 3 1
13 13 12 12 14 14 14 14 14 14 15 14 13 12 12 11 11 10 10 10 9 9 9 9 8 8 8 9 9 9 9 9 9 9 9 9 8 8 7 6 5 4 2 1
11 11 10 15 14 13 13 14 14 14 13 12 11 11 11 11 10 10 9 9 8 8 8 8 7 7 7 8 8 8 8 8 8 8 8 8 7 7 6 5 4 3 2 0
10 10 12 14 13 12 12 13 13 12 12 11 10 10 12 11 9 9 8 8 7 7 7 7 7 6 6 7 7 7 7 7 7 7 7 7 6 6 5 4 3 2 1 -1
9 8 10 14 12 10 11 12 12 11 11 11 10 10 11 9 8 8 7 7 6 6 6 6 6 6 6 6 5 5 5 6 6 6 6 6 5 5 4 3 2 1 -1 -2
9 9 12 13 10 10 11 13 11 10 10 10 9 9 8 8 7 7 6 6 6 6 6 6 5 5 5 5 4 4 4 5 5 5 5 5 5 4 3 2 1 -0 -2 -3
9 9 10 12 10 12 13 12 10 10 9 8 8 8 7 6 6 6 5 5 5 5 5 5 5 4 4 3 3 3 4 4 4 4 4 4 4 3 3 1 -0 -1 -3 -4
11 12 13 10 11 11 10 9 9 8 8 7 7 6 6 5 5 5 5 5 5 4 4 4 4 3 2 2 2 2 3 3 3 3 3 3 2 2 1 0 -1 -2 -4 -5
10 11 12 11 10 9 9 8 8 7 7 6 6 5 5 4 5 5 5 4 4 4 3 3 3 3 2 2 1 1 1 1 1 1 2 2 2 1 1 -0 -2 -3 -4 -5
9 10 10 10 9 8 8 7 6 6 5 5 4 4 4 4 4 4 4 4 4 3 2 2 2 2 2 1 1 0 0 0 0 0 0 1 1 1 0 -1 -2 -3 -4 -5
9 10 10 9 8 7 6 6 5 5 4 4 4 4 4 3 4 3 3 3 3 2 2 2 1 1 1 0 -0 -1 -1 -1 -1 -1 -1 -0 -0 -0 -0 -1 -2 -3 -4 -6
8 7 7 7 6 5 5 4 4 4 4 4 4 3 3 3 3 3 3 2 2 1 1 1 0 0 0 -1 -1 -1 -1 -1 -2 -1 -1 -1 -1 -1 -2 -2 -2 -3 -4 -6
6 5 5 5 5 4 4 3 3 3 3 3 3 3 3 3 3 2 2 2 1 1 0 -0 -1 -1 -1 -1 -2 -2 -2 -2 -2 -2 -2 -2 -2 -2 -3 -3 -4 -4 -5 -5
5 4 4 4 3 3 3 3 3 3 3 3 3 2 2 2 2 1 1 1 0 -0 -1 -1 -1 -1 -1 -2 -2 -2 -2 -2 -2 -2 -2 -2 -3 -3 -3 -4 -5 -5 -6 -6
3 3 3 3 3 3 2 2 2 2 2 2 2 2 1 1 1 1 0 -0 -1 -1 -1 -1 -1 -2 -2 -2 -2 -2 -2 -2 -3 -3 -3 -3 -3 -3 -4 -4 -5 -6 -7 -7
2 2 2 2 2 2 2 2 2 1 1 1 1 1 1 0 -0 -0 -1 -1 -1 -2 -1 -2 -2 -3 -3 -3 -3 -3 -3 -3 -3 -3 -3 -3 -3 -4 -4 -5 -5 -6 -7 -7
2 2 2 2 2 2 2 1 1 1 1 1 0 -0 -1 -1 -1 -2 -2 -2 -2 -2 -2 -2 -3 -3 -3 -3 -3 -3 -3 -3 -3 -3 -3 -3 -4 -4 -4 -5 -5 -6 -7 -8
2 2 2 1 1 1 1 1 0 0 0 -0 -1 -1 -1 -2 -2 -2 -3 -3 -3 -3 -3 -3 -3 -3 -3 -3 -3 -3 -3 -3 -3 -3 -3 -3 -4 -4 -4 -5 -6 -7 -7 -8
2 2 1 1 1 1 0 0 -0 -0 -1 -1 -1 -2 -2 -2 -2 -3 -3 -4 -3 -4 -4 -4 -4 -4 -3 -3 -3 -3 -3 -3 -3 -3 -3 -4 -4 -4 -5 -5 -6 -7 -8 -8
1 1 1 1 0 0 -0 -1 -1 -1 -1 -2 -2 -2 -3 -3 -3 -4 -4 -5 -4 -4 -5 -5 -4 -4 -4 -3 -3 -3 -3 -3 -3 -3 -4 -4 -4 -5 -5 -6 -6 -7 -8 -8
1 0 -0 -0 -1 -1 -1 -1 -1 -2 -2 -2 -2 -3 -3 -4 -4 -5 -5 -5 -5 -5 -5 -5 -4 -4 -4 -3 -3 -3 -3 -3 -3 -4 -4 -4 -5 -5 -6 -6 -7 -7 -8 -8
-0 -0 -1 -1 -1 -1 -2 -1 -2 -2 -2 -3 -3 -3 -4 -5 -5 -6 -6 -5 -6 -5 -5 -5 -4 -4 -3 -3 -3 -3 -3 -4 -4 -4 -4 -5 -5 -6 -6 -6 -7 -8 -8 -8
-1 -1 -1 -1 -1 -2 -2 -2 -2 -3 -3 -3 -3 -4 -5 -5 -6 -6 -6 -6 -6 -5 -5 -4 -4 -3 -3 -3 -3 -3 -4 -4 -4 -5 -5 -5 -6 -6 -6 -7 -7 -8 -8 -8
-1 -1 -1 -2 -2 -3 -3 -3 -3 -3 -4 -4 -4 -5 -5 -6 -6 -7 -7 -6 -5 -5 -5 -4 -4 -3 -3 -3 -3 -4 -4 -4 -5 -5 -5 -6 -6 -7 -7 -7 -8 -8 -8 -8
-2 -2 -2 -2 -3 -3 -3 -4 -4 -5 -5 -5 -5 -5 -6 -6 -7 -7 -7 -6 -6 -5 -5 -4 -4 -3 -3 -4 -4 -4 -4 -4 -5 -5 -6 -6 -7 -7 -7 -8 -8 -8 -7 -7
-2 -2 -2 -3 -3 -3 -4 -4 -5 -5 -6 -6 -6 -6 -6 -7 -7 -7 -7 -6 -6 -6 -5 -5 -4 -4 -4 -4 -4 -4 -4 -5 -5 -6 -6 -7 -7 -7 -8 -8 -8 -7 -7 -7
Wind_Speed
18 19 18 20 22 21 22 24 26 33 32 31 23 14 10 10 11 11 15 17 19 19 19 19 18 17 16 14 12 10 10 11 13 13 13 14 15 16 16 17 18 19 20 20
17 18 19 24 27 29 28 27 29 31 31 19 7 8 10 13 13 13 16 19 20 20 20 20 19 18 17 16 14 12 11 12 12 11 12 13 14 14 16 17 18 18 19 20
17 13 13 17 18 19 15 16 18 20 15 7 9 12 15 17 14 14 19 21 21 20 20 19 19 18 17 17 16 13 13 12 12 11 12 13 13 14 16 17 17 18 19 21
9 9 11 9 3 8 13 16 17 16 11 10 12 14 16 14 13 18 21 21 21 20 20 19 18 17 17 17 16 14 14 13 11 11 12 13 13 15 15 15 16 17 19 21
5 8 13 12 8 4 6 11 6 2 6 12 15 17 15 12 15 20 21 20 19 18 19 18 18 17 17 17 16 15 15 14 12 10 12 13 14 15 14 14 15 16 17 19
6 6 8 7 2 0 4 7 2 4 13 18 19 20 17 18 21 21 20 18 17 17 18 17 17 16 16 17 16 16 15 15 15 13 13 14 14 14 13 13 14 14 16 18
10 10 11 8 0 2 5 6 4 13 18 19 19 18 21 22 19 17 17 17 17 17 16 16 17 16 16 17 17 16 16 16 16 15 14 14 14 12 12 12 13 14 16 16
7 9 11 3 4 5 10 12 17 20 19 20 21 21 20 18 17 16 16 16 16 15 17 17 17 16 17 18 17 17 17 17 16 15 13 11 12 12 11 11 12 13 14 15
9 11 9 3 8 12 14 19 20 19 20 20 20 20 17 15 15 15 15 15 15 16 18 18 16 16 18 18 18 17 17 17 16 16 14 12 11 11 10 10 11 11 11 12
14 17 20 20 20 19 18 19 20 20 20 18 17 16 13 13 13 14 15 16 16 17 18 19 18 18 18 18 17 17 17 17 16 15 14 12 10 9 9 10 11 11 12 12
21 23 22 17 15 17 19 20 20 19 16 13 11 11 12 13 14 14 15 16 16 16 18 20 20 19 19 18 17 17 17 16 15 13 13 12 10 10 11 12 12 12 11 11
20 20 20 23 21 22 21 19 17 14 12 9 8 10 12 13 14 15 16 17 17 18 20 21 20 20 19 18 16 16 15 15 13 12 12 11 11 11 13 16 18 20 20 17
24 23 22 24 21 18 16 13 10 9 9 9 10 10 12 14 15 16 18 19 19 20 20 21 20 20 19 17 16 15 15 15 13 12 12 11 10 11 11 11 15 19 21 22
18 19 22 20 18 14 11 9 8 7 7 8 10 11 13 15 16 18 19 19 20 20 21 20 20 21 19 17 15 15 15 14 13 12 12 11 11 11 10 11 10 9 12 18
15 15 17 17 14 11 8 7 7 8 9 11 12 13 15 17 19 20 20 19 20 20 20 20 21 21 18 16 15 16 14 12 12 12 12 11 11 10 10 11 10 10 8 9
16 15 13 11 10 8 7 7 8 10 12 14 15 17 17 18 19 20 20 19 20 21 21 20 21 20 18 17 16 14 13 16 16 13 12 11 10 10 10 10 10 9 8 8
10 10 9 9 9 8 8 9 11 13 14 16 18 18 19 20 21 21 21 20 19 20 20 20 19 18 17 17 16 13 13 14 17 14 11 11 10 10 10 9 9 9 8 9
5 6 6 8 8 9 10 12 13 15 16 17 19 19 20 21 22 22 22 21 20 20 20 19 17 18 18 17 15 13 12 12 12 12 11 11 11 10 9 9 9 9 8 8
4 5 6 8 9 10 12 14 16 16 17 17 19 20 21 20 20 21 21 20 21 20 17 15 23 21 18 18 17 13 13 13 13 12 11 13 12 10 9 8 8 8 7 7
5 7 9 11 12 12 14 16 17 18 18 17 19 20 21 20 19 19 19 18 16 15 16 19 20 18 16 16 18 13 13 14 14 13 11 10 10 9 8 8 8 7 7 7
9 10 12 14 16 16 16 17 18 19 19 18 18 19 19 19 19 18 17 18 15 16 18 22 17 15 15 16 19 14 13 13 13 12 11 10 9 8 7 7 7 7 6 6
11 13 16 17 18 19 17 17 17 19 19 18 18 17 18 18 18 17 16 15 17 19 17 15 15 18 21 23 14 13 13 13 12 11 10 9 8 7 6 6 6 6 6 6
14 16 17 18 19 19 19 17 17 17 17 18 19 19 19 18 16 16 17 15 15 21 19 16 20 27 29 18 12 12 12 13 12 11 10 9 7 6 5 5 5 5 5 5
16 17 16 16 16 16 18 17 14 14 15 17 16 16 16 16 15 14 14 19 22 24 17 20 26 27 25 13 11 11 11 11 10 10 9 7 5 4 4 4 4 5 5 6
15 14 14 14 14 14 15 14 14 14 15 14 16 16 14 13 14 15 16 18 21 22 16 19 24 23 16 11 11 11 10 10 10 9 7 6 4 3 3 3 4 4 5 5
14 14 14 13 13 13 13 12 13 13 14 15 15 14 14 13 15 15 14 16 19 20 16 14 14 15 12 11 10 10 9 9 9 7 6 4 3 2 2 3 4 4 4 5
13 13 11 12 12 11 11 12 13 14 14 14 16 15 15 14 14 15 16 15 15 14 14 12 12 12 11 10 9 8 8 7 6 5 4 2 1 1 2 4 4 4 4 5
Wind_Direction
264 276 279 275 273 264 255 259 267 276 283 291 311 332 340 340 338 338 343 343 341 337 333 331 330 328 327 322 317 305 285 271 265 263 258 254 250 245 240 235 232 229 226 224
272 273 276 276 270 266 264 263 264 271 279 297 340 351 342 334 330 328 332 333 331 328 326 325 324 323 321 318 316 307 291 282 277 271 264 257 253 248 242 237 232 229 226 224
284 296 294 273 262 257 250 250 258 270 292 351 338 338 331 324 319 322 325 324 321 319 318 316 316 316 314 313 312 306 296 290 285 278 269 262 256 250 243 238 233 229 227 225
286 292 253 260 295 266 265 267 271 275 293 319 324 320 312 312 316 320 321 318 316 316 314 313 312 312 310 309 307 304 299 295 290 280 275 272 263 254 248 241 235 232 229 228
254 266 276 280 282 261 263 280 286 311 333 328 327 315 311 327 324 317 315 314 313 313 312 311 311 312 311 308 307 305 303 302 298 285 278 275 268 261 254 245 240 235 232 230
227 250 269 284 118 335 277 276 146 339 329 327 326 316 316 325 319 315 315 315 316 314 312 311 314 317 312 309 309 309 310 308 304 297 287 279 274 268 258 247 243 238 235 232
233 246 267 280 285 216 261 317 348 320 320 318 313 306 308 314 313 312 313 315 317 316 314 314 317 317 311 310 310 313 312 307 304 300 294 287 282 273 262 250 244 240 239 235
222 230 253 215 174 233 300 318 313 312 314 312 308 307 308 310 311 313 315 317 320 317 313 314 316 315 310 309 312 313 310 306 304 303 299 290 282 274 261 250 245 243 241 239
225 241 271 242 257 292 306 305 308 310 310 308 305 306 308 308 310 313 314 315 316 315 312 312 315 315 309 309 312 311 308 306 305 304 300 292 282 273 262 248 243 242 239 238
264 264 274 280 285 291 298 304 307 307 307 305 302 304 306 307 309 310 312 314 316 315 313 313 315 314 309 309 310 308 306 306 306 306 303 297 284 269 259 250 244 241 240 239
265 277 285 283 289 297 305 305 304 305 304 302 301 302 306 307 308 310 311 312 313 311 310 310 312 311 310 311 311 308 306 306 306 304 301 298 287 271 261 252 247 243 243 241
270 284 293 297 304 307 303 301 304 304 303 303 300 302 306 305 306 308 308 310 310 309 309 310 311 310 310 311 311 308 306 306 305 304 302 297 293 287 262 254 257 251 247 246
273 288 293 298 302 302 297 299 302 299 297 300 306 306 305 304 306 306 307 309 310 310 308 308 309 308 310 312 310 305 302 302 302 300 299 297 293 289 289 277 257 254 252 249
284 292 293 297 300 301 297 296 296 293 295 299 303 307 306 304 304 306 306 309 310 308 307 308 308 307 311 312 308 302 301 298 297 296 296 295 291 285 281 282 282 270 255 250
289 290 291 296 296 293 290 289 295 301 307 309 310 307 307 306 306 305 306 308 307 306 306 309 308 308 311 310 305 301 299 296 296 295 293 290 287 282 277 273 272 272 268 255
300 298 295 290 290 294 292 293 298 303 307 309 309 309 308 305 303 303 304 307 309 308 308 307 305 306 308 306 303 300 296 292 295 294 292 290 286 280 275 271 268 265 260 255
298 303 309 306 306 303 299 297 298 301 305 305 306 307 306 305 304 305 309 311 307 303 302 302 302 305 305 302 301 299 297 295 295 293 290 288 284 278 273 268 263 260 256 249
291 293 300 305 307 306 304 302 301 301 300 302 304 304 304 305 305 307 308 308 306 303 302 302 305 307 304 301 299 297 295 293 292 290 288 285 282 276 270 264 258 255 253 247
344 333 327 318 310 304 301 301 300 300 300 302 303 302 302 300 301 302 305 307 305 305 304 306 307 307 302 300 300 296 294 293 291 288 286 284 282 275 268 260 253 247 242 235
317 318 315 311 307 300 298 299 300 300 301 302 300 300 300 302 304 305 304 300 295 295 300 304 305 302 301 301 301 297 293 292 292 292 290 285 279 274 267 257 246 239 233 227
302 306 305 305 304 301 299 299 300 300 301 300 298 297 298 301 302 302 301 301 301 303 306 306 306 302 303 303 303 298 296 295 294 294 291 288 281 272 263 252 237 229 225 220
293 298 301 303 302 301 301 301 298 298 299 299 298 297 298 301 302 301 294 293 301 306 309 305 303 302 307 307 302 300 299 298 297 295 293 288 280 270 258 242 229 220 215 210
291 295 298 299 299 300 300 298 296 297 298 299 300 300 301 302 303 302 302 303 306 306 308 301 301 305 308 309 303 303 302 301 300 299 296 289 279 265 249 232 220 210 203 196
290 293 293 293 295 296 296 297 294 295 296 297 295 293 296 300 301 299 298 303 307 306 305 301 304 308 312 309 304 303 302 302 301 299 298 293 281 257 234 218 206 196 189 183
284 285 286 288 291 294 295 297 297 296 298 299 300 301 300 299 299 302 303 304 306 307 305 305 307 311 311 303 303 304 304 304 304 304 300 295 279 246 216 200 188 178 175 173
283 287 288 285 286 290 294 296 297 300 303 303 304 306 307 306 304 303 304 305 305 306 307 305 307 309 307 306 307 307 308 310 311 309 306 301 275 226 192 177 168 165 163 160
282 284 285 285 286 288 291 293 295 298 301 302 304 307 307 308 307 308 308 308 308 307 307 307 308 308 308 309 310 310 311 312 311 311 312 305 254 180 162 158 154 150 149 148
Height
1523 1520 1521 1520 1518 1515 1514 1507 1501 1484 1479 1472 1474 1478 1479 1478 1475 1472 1469 1465 1461 1457 1452 1447 1442 1437 1432 1428 1423 1418 1413 1409 1404 1400 1395 1391 1387 1384 1380 1377 1375 1373 1371 1370
1523 1520 1518 1516 1508 1504 1500 1496 1491 1484 1478 1476 1480 1480 1478 1476 1473 1469 1466 1462 1458 1454 1448 1443 1438 1432 1427 1422 1417 1412 1407 1402 1397 1392 1387 1383 1379 1375 1371 1368 1365 1363 1360 1360
1517 1515 1518 1507 1492 1491 1490 1485 1484 1480 1475 1479 1479 1478 1476 1473 1470 1467 1463 1459 1454 1449 1444 1438 1433 1427 1421 1416 1410 1405 1399 1394 1389 1384 1379 1375 1370 1366 1362 1358 1355 1352 1350 1349
1519 1519 1516 1489 1485 1487 1485 1480 1478 1477 1479 1480 1479 1477 1474 1470 1467 1463 1459 1454 1449 1443 1437 1432 1426 1420 1414 1409 1403 1397 1392 1386 1381 1376 1371 1366 1362 1357 1353 1349 1345 1342 1340 1339
1522 1515 1498 1486 1484 1484 1483 1478 1477 1477 1478 1477 1475 1471 1467 1465 1463 1459 1454 1449 1443 1437 1431 1425 1419 1413 1407 1401 1395 1390 1384 1379 1373 1368 1363 1358 1353 1348 1344 1340 1336 1333 1331 1329
1520 1520 1502 1480 1484 1484 1485 1476 1476 1476 1475 1473 1470 1465 1460 1461 1458 1452 1448 1442 1436 1431 1425 1419 1413 1406 1400 1393 1388 1382 1377 1371 1366 1361 1355 1350 1345 1340 1335 1331 1327 1324 1321 1320
1514 1510 1489 1479 1483 1484 1482 1473 1476 1474 1472 1470 1468 1464 1459 1455 1451 1446 1441 1436 1430 1425 1419 1413 1406 1399 1393 1387 1381 1376 1370 1364 1359 1354 1348 1343 1337 1332 1327 1323 1319 1316 1313 1312
1506 1503 1491 1477 1480 1478 1474 1473 1473 1470 1468 1465 1461 1457 1453 1449 1444 1440 1435 1430 1425 1419 1413 1407 1400 1393 1386 1380 1375 1368 1362 1356 1351 1346 1341 1335 1329 1324 1320 1315 1311 1308 1306 1304
1491 1484 1475 1477 1475 1474 1473 1471 1468 1466 1463 1460 1455 1451 1447 1443 1439 1435 1430 1425 1419 1413 1406 1400 1394 1388 1380 1373 1367 1360 1354 1349 1344 1338 1333 1328 1322 1317 1312 1308 1304 1301 1299 1297
1484 1473 1473 1473 1472 1471 1470 1466 1463 1460 1457 1453 1449 1445 1442 1438 1434 1429 1424 1419 1413 1406 1399 1393 1387 1381 1374 1367 1360 1353 1347 1341 1336 1331 1325 1320 1315 1310 1305 1301 1297 1294 1292 1290
1475 1471 1469 1467 1468 1466 1464 1461 1457 1454 1451 1447 1444 1440 1437 1433 1429 1424 1419 1413 1407 1400 1393 1386 1380 1373 1367 1360 1353 1346 1340 1335 1329 1324 1319 1313 1308 1304 1299 1295 1292 1288 1286 1284
1466 1466 1465 1462 1463 1461 1458 1454 1451 1447 1444 1442 1439 1436 1432 1428 1424 1418 1412 1406 1399 1393 1386 1379 1372 1366 1360 1353 1347 1340 1333 1328 1323 1317 1312 1307 1301 1296 1291 1288 1284 1281 1279 1278
1466 1464 1462 1458 1456 1454 1451 1448 1445 1442 1440 1437 1435 1432 1428 1423 1418 1412 1406 1400 1393 1386 1379 1371 1365 1358 1352 1346 1340 1334 1328 1322 1317 1311 1306 1301 1295 1290 1284 1280 1277 1274 1272 1271
1463 1461 1456 1453 1451 1448 1445 1443 1440 1438 1436 1433 1430 1427 1422 1417 1411 1405 1399 1392 1385 1378 1371 1364 1357 1351 1345 1339 1333 1327 1322 1316 1311 1305 1300 1295 1289 1284 1279 1274 1271 1267 1265 1264
1458 1456 1452 1448 1445 1442 1440 1438 1436 1434 1432 1429 1425 1421 1416 1410 1404 1397 1391 1384 1377 1370 1363 1357 1350 1343 1338 1332 1326 1320 1315 1310 1304 1299 1294 1289 1283 1278 1273 1269 1265 1262 1259 1258
1452 1449 1446 1443 1440 1438 1437 1435 1433 1430 1427 1423 1419 1415 1409 1403 1396 1389 1383 1377 1370 1362 1355 1348 1342 1336 1330 1324 1319 1313 1308 1303 1298 1293 1287 1282 1277 1272 1267 1263 1259 1256 1254 1254
1447 1444 1442 1440 1438 1436 1435 1433 1430 1426 1422 1418 1412 1407 1401 1394 1387 1381 1375 1369 1362 1354 1348 1341 1334 1328 1323 1317 1312 1306 1301 1295 1291 1286 1281 1276 1271 1266 1261 1257 1253 1251 1249 1249
1445 1443 1441 1439 1437 1434 1431 1429 1425 1421 1416 1410 1405 1399 1393 1386 1379 1372 1365 1359 1352 1345 1340 1334 1327 1321 1315 1310 1305 1299 1294 1289 1284 1279 1274 1269 1264 1259 1255 1251 1248 1245 1244 1244
1443 1441 1438 1436 1433 1430 1426 1423 1418 1413 1408 1403 1396 1390 1384 1378 1371 1364 1357 1350 1343 1335 1330 1325 1319 1313 1307 1302 1298 1292 1287 1282 1276 1271 1266 1261 1257 1252 1248 1245 1242 1240 1240 1240
1440 1437 1434 1431 1428 1424 1420 1415 1410 1405 1400 1395 1388 1381 1375 1369 1363 1356 1348 1342 1336 1330 1322 1316 1310 1305 1300 1295 1291 1285 1280 1275 1269 1264 1259 1254 1249 1245 1242 1239 1237 1236 1235 1236
1435 1432 1428 1424 1420 1417 1413 1408 1402 1396 1391 1386 1379 1372 1366 1359 1354 1347 1340 1332 1326 1322 1315 1309 1304 1298 1293 1288 1284 1278 1273 1267 1262 1256 1251 1247 1242 1239 1236 1234 1232 1231 1232 1232
1429 1425 1421 1417 1413 1408 1404 1399 1394 1388 1382 1376 1370 1364 1357 1351 1345 1338 1332 1327 1319 1314 1308 1302 1297 1292 1287 1282 1277 1271 1266 1260 1255 1250 1244 1240 1236 1233 1230 1229 1228 1228 1228 1229
1422 1418 1414 1409 1404 1399 1394 1390 1385 1379 1373 1368 1362 1356 1350 1344 1338 1331 1323 1318 1313 1306 1301 1295 1290 1285 1281 1276 1270 1265 1259 1253 1248 1243 1238 1234 1230 1228 1226 1225 1225 1225 1226 1227
1413 1409 1405 1400 1395 1390 1384 1380 1376 1370 1365 1359 1353 1348 1342 1335 1328 1324 1318 1311 1305 1300 1294 1289 1284 1279 1274 1269 1264 1258 1253 1247 1242 1237 1233 1229 1226 1223 1222 1222 1222 1223 1224 1226
1404 1400 1395 1391 1386 1382 1377 1371 1366 1361 1356 1350 1345 1340 1335 1329 1323 1315 1310 1304 1298 1293 1287 1282 1278 1273 1268 1263 1258 1253 1248 1242 1237 1233 1228 1225 1222 1221 1220 1220 1221 1222 1224 1226
1394 1390 1386 1383 1379 1374 1369 1364 1359 1353 1348 1342 1337 1332 1327 1321 1315 1309 1304 1298 1293 1287 1283 1277 1272 1268 1263 1258 1253 1248 1243 1238 1233 1228 1225 1222 1220 1219 1219 1219 1220 1222 1224 1226
1384 1381 1377 1373 1370 1366 1362 1357 1352 1346 1342 1336 1330 1324 1320 1314 1309 1303 1298 1293 1287 1282 1277 1273 1268 1263 1259 1254 1249 1244 1239 1234 1230 1226 1223 1221 1219 1219 1219 1220 1221 1223 1225 1227